Probability
0 0 0 0 0 0 0 0 0 0 0 0 0 0 0 0 0 0 0 0 0 0 0 0 0 0 0 0 0 0 0 0 0 0 0 0 0 0 0 0 0 0 0 0 0 0 0 0 0
0 0 0 0 0 0 0 0 0 0 0 0 0 0 0 0 0 0 0 0 0 0 0 0 0 0 0 0 0 0 0 0 0 0 0 0 0 0 0 0 0 0 0 0 0 0 0 0 0
0 0 0 0 0 0 0 0 0 0 0 0 0 0 0 0 0 0 0 0 0 0 0 0 0 0 0 0 0 0 0 0 0 0 0 0 0 0 0 0 0 0 0 0 0 0 0 0 0
0 0 0 0 0 0 0 0 0 0 0 0 0 0 0 0 0 0 0 0 0 0 0 0 0 0 0 0 0 0 0 0 0 0 0 0 0 0 0 0 0 0 0 0 0 0 0 0 0
0 0 0 0 0 0 0 0 0 0 0 0 0 0 0 0 0 0 0 0 0 0 0 0 0 0 0 0 0 0 0 0 0 0 0 0 0 0 0 0 0 0 0 0 0 0 0 0 0
0 0 0 0 0 0 0 0 0 0 0 0 0 0 0 0 0 0 0 0 0 0 0 0 0 0 0 0 0 0 0 0 0 0 0 0 0 0 0 0 0 0 0 0 0 0 0 0 0
0 0 0 0 0 0 0 0 0 0 0 0 0 0 0 0 0 0 0 0 0 0 0 0 0 0 0 0 0 0 0 0 0 0 0 0 0 0 0 0 0 0 0 0 0 0 0 0 0
0 0 0 0 0 0 0 0 0 0 0 0 0 0 0 0 0 0 0 0 0 0 0 0 0 0 0 0 0 0 0 0 0 0 0 0 0 0 0 0 0 0 0 0 0 0 0 0 0
0 0 0 0 0 0 0 0 0 0 0 0 0 0 0 0 0 0 0 0 0 0 0 0 0 0 0 0 0 0 0 0 0 0 0 0 0 0 0 0 0 0 0 0 0 0 0 0 0
0 0 0 0 0 0 0 0 0 0 0 0 0 0 0 0 0 0 0 0 0 0 0 0 0 0 0 0 0 0 0 0 0 0 0 0 0 0 0 0 0 0 0 0 0 0 0 0 0
0 0 0 0 0 0 0 0 0 0 0 0 0 0 0 0 0 0 0 0 0 0 0 0 0 0 0 0 0 0 0 0 0 0 0 0 0 0 0 0 0 0 0 0 0 0 0 0 0
0 0 0 0 0 0 0 0 0 0 0 0 0 0 0 0 0 0 0 0 0 0 0 0 0 0 0 0 0 0 0 0 0 0 0 0 0 0 0 0 0 0 0 0 0 0 0 0 0
0 0 0 0 0 0 0 0 0 0 0 0 0 0 0 0 0 0 0 0 0 0 0 0 0 0 0 0 0 0 0 0 0 0 0 0 0 0 0 0 0 0 0 0 0 0 0 0 0
0 0 0 0 0 0 0 0 0 0 0 0 0 0 0 0 0 0 0 0 0 0 0 0 0 0 0 0 0 0 0 0 0 0 0 0 0 0 0 0 0 0 0 0 0 0 0 0 0
0 0 0 0 0 0 0 0 0 0 0 0 0 0 0 0 0 0 0 0 0 0 0 0 0 0 0 0 0 0 0 0 0 0 0 0 0 0 0 0 0 0 0 0 0 0 0 0 0
0 0 0 0 0 0 0 0 0 0 0 0 0 0 0 0 0 0 0 0 0 0 0 0 0 0 0 0 0 0 0 0 0 0 0 0 0 0 0 0 0 0 0 0 0 0 0 0 0
0 0 0 0 0 0 0 0 0 0 0 0 0 0 0 0 0 0 0 0 0 0 0 0 0 0 0 0 0 0 0 0 0 0 0 0 0 0 0 0 0 0 0 0 0 0 0 0 0
0 0 0 0 0 0 0 0 0 0 0 0 0 0 0 0 0 0 0 0 0 0 0 0 0 0 0 0 0 0 0 0 0 0 0 0 0 0 0 0 0 0 0 0 0 0 0 0 0
0 0 0 0 0 0 0 0 0 0 0 0 0 0 0 0 0 0 0 0 0 0 0 0 0 0 0 0 0 0 0 0 0 0 0 0 0 0 0 0 0 0 0 0 0 0 0 0 0
0 0 0 0 0 0 0 0 0 0 0 0 0 0 0 0 0 0 0 0 0 0 0 0 0 0 0 0 0 0 0 0 0 0 0 0 0 0 0 0 0 0 0 0 0 0 0 0 0
0 0 0 0 0 0 0 0 0 0 0 0 0 0 0 0 0 0 0 0 0 0 0 0 0 0 0 0 0 0 0 0 0 0 0 0 0 0 0 0 0 0 0 0 0 0 0 0 0
0 0 0 0 0 0 0 0 0 0 0 0 0 0 0 0 0 0 0 0 0 0 0 0 0 0 0 0 0 0 0 0 0 0 0 0 0 0 0 0 0 0 0 0 0 0 0 0 0
0 0 0 0 0 0 0 0 0 0 0 0 0 0 0 0 0 0 0 0 0 0 0 0 0 0 0 0 0 0 0 0 0 0 0 0 0 0 0 0 0 0 0 0 0 0 0 0 0
0 0 0 0 0 0 0 0 0 0 0 0 0 0 0 0 0 0 0 0 0 0 0 0 0 0 0 0 0 0 0 0 0 0 0 0 0 0 0 0 0 0 0 0 0 0 0 0 0
0 0 0 0 0 0 0 0 0 0 0 0 0 0 0 0 0 0 0 0 0 0 0 0 0 0 0 0 0 0 0 0 0 0 0 0 0 0 0 0 0 0 0 0 0 0 0 0 0
0 0 0 0 0 0 0 0 0 0 0 0 0 0 0 0 0 0 0 0 0 0 0 0 0 0 0 0 0 0 0 0 0 0 0 0 0 0 0 0 0 0 0 0 0 0 0 0 0
0 0 0 0 0 0 0 0 0 0 0 0 0 0 0 0 0 0 0 0 0 0 0 0 0 0 0 0 0 0 0 0 0 0 0 0 0 0 0 0 0 0 0 0 0 0 0 0 0
0 0 0 0 0 0 0 0 0 0 0 0 0 0 0 0 0 0 0 0 0 0 0 0 0 0 0 0 0 0 0 0 0 0 0 0 0 0 0 0 0 0 0 0 0 0 0 0 0
0 0 0 0 0 0 0 0 0 0 0 0 0 0 0 0 0 0 0 0 0 0 0 0 0 0 0 0 0 0 0 0 0 0 0 0 0 0 0 0 0 0 0 0 0 0 0 0 0
0 0 0 0 0 0 0 0 0 0 0 0 0 0 0 0 0 0 0 0 0 0 0 0 0 0 0 0 0 0 0 0 0 0 0 0 0 0 0 0 0 0 0 0 0 0 0 0 0
Wind_Speed
12 8 3 5 7 6 1 1 3 3 3 2 5 9 8 4 2 4 3 10 12 9 7 9 11 12 13 13 13 13 14 15 15 16 16 17 17 18 18 17 17 18 18 18 18 18 18 17 17
7 5 6 6 6 2 2 1 3 3 5 5 6 7 6 4 3 7 6 10 12 10 8 9 11 12 13 13 13 13 14 15 15 16 16 17 17 17 17 17 17 17 17 17 17 17 17 17 17
7 4 5 5 3 4 3 3 5 2 2 4 5 5 5 4 4 5 8 12 11 9 7 9 11 13 14 14 14 13 14 15 15 16 16 16 17 17 17 16 16 16 16 16 16 16 16 16 17
4 5 5 5 0 3 6 6 5 4 2 5 6 5 3 1 4 7 13 12 11 8 7 9 12 13 14 14 14 14 14 15 15 15 16 16 16 16 16 16 16 15 15 15 15 15 15 16 16
4 4 4 2 2 2 3 6 6 6 4 3 6 5 2 4 8 14 13 13 12 8 6 8 11 12 13 13 14 14 14 14 15 15 15 15 15 15 15 15 15 15 15 14 14 14 14 15 15
4 4 3 1 2 2 2 4 5 5 4 4 7 6 1 1 9 12 12 11 11 9 7 7 10 11 11 12 12 13 13 14 14 14 14 15 15 14 15 15 14 14 14 13 13 13 13 13 14
3 3 3 3 2 2 3 3 6 5 4 5 9 8 3 3 6 10 11 11 10 9 8 6 6 8 10 11 11 11 12 12 12 13 13 12 12 13 13 13 13 13 13 12 12 11 11 12 12
3 3 2 3 3 3 3 2 4 7 4 4 6 11 9 8 7 9 10 10 9 8 8 7 6 6 6 7 10 11 11 11 11 12 11 11 11 11 10 10 11 12 12 11 11 10 9 10 10
3 3 3 4 5 4 2 2 0 2 6 4 2 5 8 12 10 11 9 7 8 9 8 8 7 7 6 6 9 9 10 10 10 9 11 9 5 6 6 7 10 10 10 10 9 8 7 6 7
4 4 7 4 4 3 2 2 3 3 3 2 3 3 8 13 13 13 13 14 13 12 10 8 8 8 7 6 6 5 5 6 5 5 6 4 4 4 5 8 8 8 7 7 7 5 4 4 3
5 7 5 4 2 2 2 2 3 7 4 6 8 9 13 11 12 12 13 13 13 12 11 10 9 9 8 6 5 3 3 4 5 6 5 4 4 3 3 3 3 3 4 2 3 2 1 1 1
4 5 4 3 2 2 3 2 2 5 7 6 10 16 17 16 17 16 15 13 11 12 12 11 11 10 9 7 6 5 4 4 4 5 6 5 4 3 3 2 3 2 1 2 1 1 1 1 1
5 4 4 4 2 2 2 3 3 5 4 2 9 15 17 18 17 13 11 9 10 11 12 13 12 12 10 8 6 7 6 6 6 5 6 6 5 5 4 3 3 3 2 3 2 2 2 2 2
6 4 3 3 3 3 4 4 2 7 3 6 12 16 17 18 16 11 11 12 13 13 13 12 13 13 11 9 8 7 7 6 6 6 7 8 6 6 5 5 4 4 4 3 4 4 3 2 2
2 2 4 5 4 3 2 6 8 8 4 7 10 13 15 15 13 16 17 17 16 15 13 13 13 13 13 11 10 8 7 7 7 7 8 8 8 7 6 5 5 5 4 5 3 3 2 2 2
2 3 6 6 6 5 6 12 11 7 7 9 10 11 13 15 16 17 16 15 13 12 13 14 12 13 13 11 10 7 7 8 7 7 7 9 9 9 7 6 6 5 4 4 4 3 3 2 2
6 8 8 5 7 6 8 10 10 6 8 11 11 11 13 13 15 16 16 16 15 16 15 15 14 15 14 12 9 8 7 8 7 7 7 9 9 9 7 6 6 6 5 4 4 3 3 3 3
10 8 8 10 6 8 9 11 10 6 8 10 10 11 12 15 18 17 17 17 15 15 15 16 15 14 12 9 7 5 6 7 7 7 8 10 9 10 8 6 7 6 5 5 4 4 3 3 3
7 8 9 9 6 8 12 14 15 10 8 10 10 11 13 16 16 14 16 16 14 14 16 17 17 15 12 10 10 10 10 8 8 8 10 11 10 10 9 7 7 7 7 7 7 4 4 3 3
8 10 9 4 4 7 9 15 14 12 11 12 13 13 14 14 11 11 14 15 17 18 18 18 19 17 15 13 12 8 7 6 7 6 8 11 11 11 10 10 9 9 7 7 7 5 4 3 4
15 14 11 5 1 3 3 10 14 13 11 12 12 13 13 15 15 14 15 17 18 19 20 19 20 19 18 14 7 5 4 3 5 8 10 11 12 12 12 12 10 10 10 9 10 9 8 6 5
19 12 10 8 5 5 6 9 10 12 14 16 17 14 15 15 15 14 15 16 18 21 19 19 19 19 18 16 12 13 13 14 14 11 10 10 12 13 13 12 12 11 10 10 10 10 8 7 6
7 9 9 9 7 5 6 8 10 7 16 17 17 17 18 17 17 17 17 18 19 19 18 18 18 18 18 17 18 17 15 13 8 7 9 11 11 13 14 13 13 12 11 12 10 11 10 9 8
6 7 4 4 6 14 16 12 13 11 16 10 13 16 18 18 17 17 15 15 15 15 15 15 17 18 18 19 18 19 19 15 10 11 12 11 10 11 14 14 14 13 12 13 13 12 13 11 10
11 10 8 10 12 14 11 12 16 10 10 14 15 16 16 16 16 15 15 14 14 15 16 15 17 18 18 19 20 20 20 18 18 15 14 12 10 11 15 15 15 13 14 13 12 12 12 13 11
20 17 13 11 9 6 7 16 13 9 11 11 13 13 12 13 13 14 15 15 15 16 16 17 18 18 18 19 20 19 18 15 13 15 13 13 12 13 12 15 15 15 14 13 12 11 12 10 12
17 17 9 3 2 4 8 9 11 6 9 11 12 12 13 13 13 14 13 13 14 15 16 18 18 18 17 18 18 17 18 17 16 15 14 11 11 10 12 13 15 15 14 14 13 11 13 11 12
11 11 7 10 10 10 8 10 11 9 13 13 13 14 14 12 11 12 11 12 12 12 13 13 16 17 17 16 16 14 16 17 16 13 14 14 13 11 11 13 14 14 14 14 14 12 11 12 12
13 16 11 9 7 9 8 12 10 13 14 15 16 15 14 14 13 12 10 9 9 8 8 10 12 13 13 13 13 13 13 13 13 13 14 14 12 13 13 14 14 14 15 14 14 14 12 14 13
13 16 17 14 10 9 8 14 5 11 12 14 15 13 11 11 10 9 8 6 5 7 7 8 9 10 11 10 10 11 11 10 12 13 13 12 12 12 13 13 13 14 14 14 15 15 14 14 14
Wind_Direction
327 328 31 51 51 49 42 253 161 115 75 68 85 89 94 91 130 147 127 136 132 133 130 125 123 122 119 115 114 112 112 109 108 107 106 105 102 100 98 96 94 93 92 91 90 89 86 83 82
325 347 40 54 77 66 297 261 132 137 152 128 87 87 80 71 82 112 124 141 134 132 131 129 126 125 123 119 116 115 114 112 110 109 108 106 104 103 101 99 97 95 95 94 93 91 87 84 84
334 37 67 65 97 168 189 207 153 147 131 99 79 67 99 128 127 137 149 141 129 128 128 132 129 129 127 122 118 116 115 114 112 110 109 108 106 106 104 102 99 98 97 97 95 92 88 86 87
20 30 51 69 322 221 179 192 165 130 79 78 101 75 62 119 159 141 141 137 128 127 130 136 132 133 131 126 123 120 119 116 113 111 110 110 108 108 108 105 102 101 100 99 98 95 89 87 88
48 62 50 30 272 267 185 181 163 137 138 107 103 101 43 341 122 131 139 136 132 131 132 137 134 133 133 131 127 124 122 121 118 116 114 114 113 113 112 110 107 105 104 102 101 98 92 87 88
45 63 87 244 261 256 218 191 146 137 144 122 111 112 129 120 127 138 139 137 136 138 135 135 135 134 134 132 130 128 126 125 123 121 120 119 118 118 117 114 112 110 108 106 104 102 95 90 89
100 104 173 210 234 248 227 180 148 150 158 160 132 119 147 182 151 140 137 136 137 139 136 133 135 134 133 131 129 128 126 126 125 124 121 117 115 116 117 117 117 115 112 110 108 105 99 91 88
125 114 189 213 199 234 237 167 159 149 163 128 124 143 175 194 159 134 132 137 140 144 146 144 138 133 131 131 131 128 127 126 124 121 116 113 111 110 110 114 120 120 118 116 113 108 99 87 84
95 100 207 215 198 224 227 146 117 129 113 76 78 169 182 155 143 134 136 142 153 158 160 155 149 144 140 139 140 134 131 131 128 126 124 114 108 105 105 115 121 124 124 123 119 111 93 71 66
114 174 219 221 196 198 216 178 164 107 105 94 48 44 132 146 152 157 164 167 170 173 173 168 161 157 153 151 143 139 139 139 137 138 133 125 124 121 118 120 124 127 129 127 123 112 81 59 48
166 197 230 254 230 192 193 200 166 137 184 191 178 165 153 161 166 173 177 177 177 174 175 176 171 166 163 154 157 154 149 151 152 154 149 139 130 123 116 116 118 121 123 107 111 87 55 72 89
192 224 225 246 244 193 196 185 179 180 208 205 179 164 165 174 181 185 184 181 176 176 181 179 175 172 171 164 167 166 165 169 170 172 162 150 146 149 152 153 158 160 155 155 150 158 167 143 134
212 236 240 245 242 221 211 212 209 236 236 149 144 161 176 185 191 193 187 180 178 183 184 182 179 178 176 171 175 176 178 182 181 176 173 166 163 168 170 174 179 185 181 178 179 181 176 168 160
212 229 253 246 234 225 217 244 218 243 198 143 158 177 189 193 193 188 188 191 192 190 188 183 183 181 178 179 181 181 184 184 184 184 182 177 172 173 175 180 186 193 191 188 186 188 183 186 182
198 216 269 248 215 218 189 258 232 232 180 180 188 193 198 203 196 198 198 198 197 195 190 187 185 182 182 184 185 183 185 183 187 190 187 184 180 178 179 183 190 196 191 186 183 189 180 187 195
156 190 228 237 199 198 176 244 248 229 202 213 209 205 206 209 207 208 205 203 200 194 193 193 189 186 187 187 187 185 186 186 189 190 190 190 187 183 181 186 194 192 184 181 180 179 179 193 197
189 210 212 230 206 183 191 238 252 225 205 220 218 211 211 215 217 215 209 206 201 198 195 194 193 191 192 190 188 186 185 191 192 190 192 195 192 188 185 190 192 184 183 185 184 182 176 186 201
191 195 197 208 211 188 209 237 253 244 213 225 226 219 215 216 219 214 211 208 204 200 197 197 196 195 192 187 184 186 192 196 194 195 197 195 195 192 189 191 191 183 184 191 189 186 184 185 186
178 185 202 211 203 194 220 236 246 244 234 234 232 226 222 224 225 215 210 207 203 199 197 197 197 196 190 190 194 196 203 202 201 202 200 198 197 194 192 193 193 191 196 198 192 179 187 199 162
200 208 212 228 213 203 232 244 245 240 232 229 229 228 226 229 229 219 211 205 203 202 200 199 199 197 195 198 199 200 198 202 207 205 204 202 201 198 198 197 197 197 199 200 195 183 179 193 174
211 212 206 204 205 232 256 269 247 246 234 238 233 227 225 222 222 219 211 207 204 205 203 201 200 199 198 195 184 176 179 190 201 209 212 209 204 202 202 202 199 199 200 205 203 195 188 196 198
219 207 199 198 188 226 198 259 252 234 239 236 235 230 229 227 224 219 212 209 207 208 204 203 201 200 198 192 188 189 199 208 211 209 210 207 206 207 206 205 204 204 205 207 205 202 200 189 196
202 173 191 204 207 233 219 246 261 219 234 235 231 230 231 229 224 221 215 212 210 207 203 203 201 201 197 195 197 199 208 215 211 202 205 208 209 211 210 209 208 209 210 211 206 202 204 204 201
150 136 163 194 210 234 220 222 258 211 220 225 226 229 230 230 228 225 221 214 212 207 203 200 200 203 199 198 200 203 210 211 204 205 209 211 211 212 213 212 213 213 213 212 211 208 209 211 210
173 163 190 203 212 232 198 213 248 211 210 210 218 226 229 227 225 223 219 214 211 205 203 201 201 205 201 200 204 207 212 211 212 212 213 211 212 214 215 211 214 215 216 215 210 210 213 213 211
194 189 196 203 208 226 184 222 246 212 218 219 223 228 232 230 225 222 218 213 210 207 204 202 203 207 203 203 207 210 212 213 217 217 215 214 216 218 212 210 214 215 214 213 211 214 216 214 217
187 204 205 183 160 212 225 256 288 237 233 231 230 230 231 229 223 222 219 214 212 208 206 203 204 207 206 206 208 211 212 214 217 216 216 217 219 216 210 209 212 214 213 213 211 217 217 215 217
190 175 174 198 193 223 238 232 233 209 214 222 226 226 228 227 225 225 221 216 213 212 209 205 206 208 208 207 209 212 213 215 217 215 215 217 216 212 209 210 212 212 213 213 214 217 217 217 219
179 189 189 195 201 202 233 246 217 203 202 211 221 222 222 221 222 223 223 219 214 210 205 204 207 209 210 209 210 212 214 215 215 217 219 219 216 211 211 211 210 211 212 212 214 217 214 217 220
197 200 194 201 206 205 226 255 217 207 209 210 217 222 222 223 222 223 222 217 211 208 205 204 206 209 211 208 208 213 215 213 216 220 221 217 216 214 213 211 211 211 211 210 211 214 214 216 218